WILDBLUE-1

Last updated on Sat Apr 13 2024 01:02:37 GMT+0100 (British Summer Time)

1 29643U 06054A 24103.57023935 -.00000057 00000+0 00000+0 0 9994 2 29643 0.7424 91.0755 0001680 286.6828 277.5926 1.00270617 45815
UTC large
Height (km)
Speed (km/s)
/
Latitude / Longitude
Inclination (degrees)
Orbital Period (minutes)
Azimuth
Elevation
Range (km)
Doppler Factor

Next 0 passes for location: London (51.5072 / 0.1276)

Sorry there are no passes over London.